Location: Bittelbronn
(48.4454°N, 8.5870°E)
Time: 08:48:17
(UTC+00:00)

Meteor 2-5 Rocket - Pass Details

Date: 17 August 2024
Orbit: 833 x 910 km, 81.2° (Epoch: 16 September)

Event Time Altitude Azimuth Distance (km) Brightness Sun altitude
Rises 01:41:41 0° 347° (NNW) 3,480 7.5 -21.7°
Reaches altitude 10° 01:44:07 10° 346° (NNW) 2,549 6.7 -21.4°
Maximum altitude 01:49:56 81° 260° (W) 911 3.7 -20.9°
Enters shadow 01:53:01 30° 177° (S) 1,560 4.7 -20.6°
